2016-07-11 00:00:29 r, 17.68m,0000000007Hz,0000061349c,0000000.133s, 038.0C,00002195
2016-07-11 00:10:29 r, 17.61m,0000000008Hz,0000057584c,0000000.125s, 037.7C,00002195
2016-07-11 00:20:28 r, 17.52m,0000000009Hz,0000053217c,0000000.115s, 037.7C,00002195
2016-07-11 00:30:31 r, 17.55m,0000000008Hz,0000054568c,0000000.118s, 037.7C,00002195
2016-07-11 00:40:29 r, 17.41m,0000000010Hz,0000047830c,0000000.104s, 037.3C,00002195
2016-07-11 00:50:28 r, 17.34m,0000000010Hz,0000044992c,0000000.098s, 037.3C,00002195
2016-07-11 01:00:29 r, 17.27m,0000000011Hz,0000042151c,0000000.091s, 037.0C,00002195
2016-07-11 01:10:29 r, 17.09m,0000000013Hz,0000035687c,0000000.077s, 037.0C,00002195
2016-07-11 01:20:28 r, 16.92m,0000000015Hz,0000030577c,0000000.066s, 037.0C,00002195
2016-07-11 01:30:28 r, 16.60m,0000000021Hz,0000022665c,0000000.049s, 036.7C,00002195
2016-07-11 01:40:29 r, 16.18m,0000000029Hz,0000015484c,0000000.034s, 036.7C,00002195
2016-07-11 01:50:31 r, 16.55m,0000000021Hz,0000021822c,0000000.047s, 036.7C,00002195
2016-07-11 02:00:28 r, 16.47m,0000000023Hz,0000020177c,0000000.044s, 036.7C,00002195
2016-07-11 02:10:28 r, 16.43m,0000000024Hz,0000019426c,0000000.042s, 036.4C,00002195
2016-07-11 02:20:30 r, 16.40m,0000000024Hz,0000018796c,0000000.041s, 036.4C,00002195
2016-07-11 02:30:29 r, 16.30m,0000000027Hz,0000017176c,0000000.037s, 036.4C,00002195
2016-07-11 02:40:31 r, 16.23m,0000000028Hz,0000016057c,0000000.035s, 036.4C,00002195
2016-07-11 02:50:28 r, 16.14m,0000000031Hz,0000014772c,0000000.032s, 036.4C,00002195
2016-07-11 03:00:31 r, 16.06m,0000000033Hz,0000013776c,0000000.030s, 036.0C,00002195
2016-07-11 03:10:29 r, 16.07m,0000000033Hz,0000013982c,0000000.030s, 036.0C,00002195
2016-07-11 03:20:29 r, 16.04m,0000000034Hz,0000013689c,0000000.030s, 036.0C,00002195
2016-07-11 03:30:29 r, 16.07m,0000000033Hz,0000013920c,0000000.030s, 036.0C,00002195
2016-07-11 03:40:30 r, 16.11m,0000000032Hz,0000014401c,0000000.031s, 035.7C,00002195
2016-07-11 03:50:29 r, 16.08m,0000000032Hz,0000014102c,0000000.031s, 035.7C,00002195
2016-07-11 04:00:29 r, 16.04m,0000000034Hz,0000013668c,0000000.030s, 035.7C,00002195
2016-07-11 04:10:31 r, 16.00m,0000000035Hz,0000013166c,0000000.029s, 035.7C,00002195
2016-07-11 04:20:29 r, 15.92m,0000000038Hz,0000012110c,0000000.026s, 035.4C,00002195
2016-07-11 04:30:30 r, 15.77m,0000000043Hz,0000010640c,0000000.023s, 035.7C,00002195
2016-07-11 04:40:29 r, 15.41m,0000000061Hz,0000007568c,0000000.016s, 035.7C,00002195
2016-07-11 04:50:29 r, 14.47m,0000000145Hz,0000000000c,0000000.000s, 035.7C,00002195
2016-07-11 05:00:29 r, 13.13m,0000000499Hz,0000000000c,0000000.000s, 035.7C,00002195
2016-07-11 05:10:29 r, 11.70m,0000001850Hz,0000000000c,0000000.000s, 035.7C,00002195
2016-07-11 05:20:29 r, 10.75m,0000004457Hz,0000000000c,0000000.000s, 035.4C,00002195
2016-07-11 05:30:29 r, 09.72m,0000011488Hz,0000000000c,0000000.000s, 035.4C,00002195
2016-07-11 05:40:29 r, 08.94m,0000023641Hz,0000000000c,0000000.000s, 035.1C,00002195
2016-07-11 05:50:29 r, 08.08m,0000051978Hz,0000000000c,0000000.000s, 034.8C,00002195
2016-07-11 06:00:29 r, 07.50m,0000089170Hz,0000000000c,0000000.000s, 034.4C,00002195
2016-07-11 06:10:29 r, 06.91m,0000153172Hz,0000000000c,0000000.000s, 034.1C,00002195
2016-07-11 06:20:29 r, 06.54m,0000216696Hz,0000000000c,0000000.000s, 034.4C,00002195
2016-07-11 06:30:29 r, 06.27m,0000276614Hz,0000000000c,0000000.000s, 034.1C,00002195
2016-07-11 06:40:29 r, 06.29m,0000273552Hz,0000000000c,0000000.000s, 034.1C,00002195
2016-07-11 06:50:29 r, 06.00m,0000352619Hz,0000000000c,0000000.000s, 034.1C,00002195
2016-07-11 07:00:31 r, 00.00m,0000548037Hz,0000000000c,0000000.000s, 034.1C,00002195
2016-07-11 07:10:29 r, 00.00m,0000564779Hz,0000000000c,0000000.000s, 034.4C,00002195
2016-07-11 07:20:29 r, 00.00m,0000564804Hz,0000000000c,0000000.000s, 034.4C,00002195
2016-07-11 07:30:31 r, 00.00m,0000564834Hz,0000000000c,0000000.000s, 034.1C,00002195
2016-07-11 07:40:29 r, 00.00m,0000564754Hz,0000000000c,0000000.000s, 034.1C,00002195
2016-07-11 07:50:29 r, 00.00m,0000564871Hz,0000000000c,0000000.000s, 034.1C,00002195
2016-07-11 08:00:29 r, 00.00m,0000564945Hz,0000000000c,0000000.000s, 034.4C,00002195
2016-07-11 08:10:29 r, 00.00m,0000564904Hz,0000000000c,0000000.000s, 035.1C,00002195
2016-07-11 08:20:29 r, 00.00m,0000565041Hz,0000000000c,0000000.000s, 036.0C,00002195
2016-07-11 08:30:29 r, 00.00m,0000565049Hz,0000000000c,0000000.000s, 036.4C,00002195
2016-07-11 08:40:29 r, 00.00m,0000565086Hz,0000000000c,0000000.000s, 036.4C,00002195
2016-07-11 08:50:29 r, 00.00m,0000565216Hz,0000000000c,0000000.000s, 038.0C,00002195
2016-07-11 09:00:29 r, 00.00m,0000565294Hz,0000000000c,0000000.000s, 038.6C,00002195
2016-07-11 09:10:31 r, 00.00m,0000565391Hz,0000000000c,0000000.000s, 039.6C,00002195
2016-07-11 09:20:29 r, 00.00m,0000565524Hz,0000000000c,0000000.000s, 040.6C,00002195
2016-07-11 09:30:29 r, 00.00m,0000565470Hz,0000000000c,0000000.000s, 040.2C,00002195
2016-07-11 09:40:29 r, 00.00m,0000565365Hz,0000000000c,0000000.000s, 040.2C,00002195
2016-07-11 09:50:29 r, 00.00m,0000565384Hz,0000000000c,0000000.000s, 040.6C,00002195
2016-07-11 10:00:29 r, 00.00m,0000565539Hz,0000000000c,0000000.000s, 042.2C,00002195
2016-07-11 10:10:29 r, 00.00m,0000565729Hz,0000000000c,0000000.000s, 043.8C,00002195
2016-07-11 10:20:30 r, 00.00m,0000565815Hz,0000000000c,0000000.000s, 045.1C,00002195
2016-07-11 10:30:29 r, 00.00m,0000565811Hz,0000000000c,0000000.000s, 044.8C,00002195
2016-07-11 10:40:29 r, 00.00m,0000565822Hz,0000000000c,0000000.000s, 044.8C,00002195
2016-07-11 10:50:29 r, 00.00m,0000565672Hz,0000000000c,0000000.000s, 043.5C,00002195
2016-07-11 11:00:30 r, 00.00m,0000565583Hz,0000000000c,0000000.000s, 043.1C,00002195
2016-07-11 11:10:29 r, 00.00m,0000565492Hz,0000000000c,0000000.000s, 042.2C,00002195
2016-07-11 11:20:29 r, 00.00m,0000565587Hz,0000000000c,0000000.000s, 042.5C,00002195
2016-07-11 11:30:29 r, 00.00m,0000565669Hz,0000000000c,0000000.000s, 043.1C,00002195
2016-07-11 11:40:29 r, 00.00m,0000565636Hz,0000000000c,0000000.000s, 042.8C,00002195
2016-07-11 11:50:29 r, 00.00m,0000565604Hz,0000000000c,0000000.000s, 042.8C,00002195
2016-07-11 12:00:29 r, 00.00m,0000565643Hz,0000000000c,0000000.000s, 042.5C,00002195
2016-07-11 12:10:29 r, 00.00m,0000565666Hz,0000000000c,0000000.000s, 043.5C,00002195
2016-07-11 12:20:29 r, 00.00m,0000565778Hz,0000000000c,0000000.000s, 044.4C,00002195
2016-07-11 12:30:29 r, 00.00m,0000565921Hz,0000000000c,0000000.000s, 046.0C,00002195
2016-07-11 12:40:29 r, 00.00m,0000565982Hz,0000000000c,0000000.000s, 046.4C,00002195
2016-07-11 12:50:29 r, 00.00m,0000565912Hz,0000000000c,0000000.000s, 046.4C,00002195
2016-07-11 13:00:29 r, 00.00m,0000565967Hz,0000000000c,0000000.000s, 047.0C,00002195
2016-07-11 13:10:29 r, 00.00m,0000566281Hz,0000000000c,0000000.000s, 050.6C,00002195
2016-07-11 13:20:29 r, 00.00m,0000566407Hz,0000000000c,0000000.000s, 053.8C,00002195
2016-07-11 13:30:30 r, 00.00m,0000566438Hz,0000000000c,0000000.000s, 055.7C,00002195
2016-07-11 13:40:29 r, 00.00m,0000566368Hz,0000000000c,0000000.000s, 055.7C,00002195
2016-07-11 13:50:29 r, 00.00m,0000566389Hz,0000000000c,0000000.000s, 056.7C,00002195
2016-07-11 14:00:30 r, 00.00m,0000566414Hz,0000000000c,0000000.000s, 057.3C,00002195
2016-07-11 14:10:29 r, 00.00m,0000566298Hz,0000000000c,0000000.000s, 057.3C,00002195
2016-07-11 14:20:29 r, 00.00m,0000566224Hz,0000000000c,0000000.000s, 054.7C,00002195
2016-07-11 14:30:30 r, 00.00m,0000566000Hz,0000000000c,0000000.000s, 051.8C,00002195
2016-07-11 14:40:30 r, 00.00m,0000565941Hz,0000000000c,0000000.000s, 050.6C,00002195
2016-07-11 14:50:29 r, 00.00m,0000565917Hz,0000000000c,0000000.000s, 050.2C,00002195
2016-07-11 15:00:29 r, 00.00m,0000566160Hz,0000000000c,0000000.000s, 053.1C,00002195
2016-07-11 15:10:29 r, 00.00m,0000566165Hz,0000000000c,0000000.000s, 053.1C,00002195
2016-07-11 15:20:29 r, 00.00m,0000566019Hz,0000000000c,0000000.000s, 051.5C,00002195
2016-07-11 15:30:29 r, 00.00m,0000565966Hz,0000000000c,0000000.000s, 049.6C,00002195
2016-07-11 15:40:29 r, 00.00m,0000565789Hz,0000000000c,0000000.000s, 047.0C,00002195
2016-07-11 15:50:29 r, 00.00m,0000565589Hz,0000000000c,0000000.000s, 045.7C,00002195
2016-07-11 16:00:29 r, 00.00m,0000565621Hz,0000000000c,0000000.000s, 045.4C,00002195
2016-07-11 16:10:30 r, 00.00m,0000565664Hz,0000000000c,0000000.000s, 046.4C,00002195
2016-07-11 16:20:29 r, 00.00m,0000565683Hz,0000000000c,0000000.000s, 046.0C,00002195
2016-07-11 16:30:29 r, 00.00m,0000565507Hz,0000000000c,0000000.000s, 044.8C,00002195
2016-07-11 16:40:31 r, 00.00m,0000565527Hz,0000000000c,0000000.000s, 044.1C,00002195
2016-07-11 16:50:29 r, 00.00m,0000565591Hz,0000000000c,0000000.000s, 044.4C,00002195
2016-07-11 17:00:29 r, 00.00m,0000565558Hz,0000000000c,0000000.000s, 044.4C,00002195
2016-07-11 17:10:29 r, 00.00m,0000565441Hz,0000000000c,0000000.000s, 044.1C,00002195
2016-07-11 17:20:29 r, 00.00m,0000565354Hz,0000000000c,0000000.000s, 043.5C,00002195
2016-07-11 17:30:29 r, 00.00m,0000565454Hz,0000000000c,0000000.000s, 043.1C,00002195
2016-07-11 17:40:29 r, 00.00m,0000565446Hz,0000000000c,0000000.000s, 043.8C,00002195
2016-07-11 17:50:29 r, 00.00m,0000565600Hz,0000000000c,0000000.000s, 044.8C,00002195
2016-07-11 18:00:29 r, 00.00m,0000565624Hz,0000000000c,0000000.000s, 045.1C,00002195
2016-07-11 18:10:29 r, 00.00m,0000565692Hz,0000000000c,0000000.000s, 046.0C,00002195
2016-07-11 18:20:30 r, 00.00m,0000565683Hz,0000000000c,0000000.000s, 046.4C,00002195
2016-07-11 18:30:30 r, 00.00m,0000565678Hz,0000000000c,0000000.000s, 046.4C,00002195
2016-07-11 18:40:31 r, 00.00m,0000565653Hz,0000000000c,0000000.000s, 045.4C,00002195
2016-07-11 18:50:29 r, 00.00m,0000565508Hz,0000000000c,0000000.000s, 044.4C,00002195
2016-07-11 19:00:29 r, 00.00m,0000565489Hz,0000000000c,0000000.000s, 043.8C,00002195
2016-07-11 19:10:29 r, 00.00m,0000565423Hz,0000000000c,0000000.000s, 043.1C,00002195
2016-07-11 19:20:29 r, 00.00m,0000565384Hz,0000000000c,0000000.000s, 042.8C,00002195
2016-07-11 19:30:29 r, 00.00m,0000565309Hz,0000000000c,0000000.000s, 042.5C,00002195
2016-07-11 19:40:29 r, 00.00m,0000565289Hz,0000000000c,0000000.000s, 042.5C,00002195
2016-07-11 19:50:29 r, 00.00m,0000565307Hz,0000000000c,0000000.000s, 042.5C,00002195
2016-07-11 20:00:29 r, 00.00m,0000565364Hz,0000000000c,0000000.000s, 042.5C,00002195
2016-07-11 20:10:30 r, 00.00m,0000565419Hz,0000000000c,0000000.000s, 042.2C,00002195
2016-07-11 20:20:29 r, 00.00m,0000565301Hz,0000000000c,0000000.000s, 041.9C,00002195
2016-07-11 20:30:29 r, 00.00m,0000565289Hz,0000000000c,0000000.000s, 041.5C,00002195
2016-07-11 20:40:30 r, 00.00m,0000565252Hz,0000000000c,0000000.000s, 041.2C,00002195
2016-07-11 20:50:29 r, 00.00m,0000565205Hz,0000000000c,0000000.000s, 040.6C,00002195
2016-07-11 21:00:29 r, 06.47m,0000229226Hz,0000000000c,0000000.000s, 040.2C,00002195
2016-07-11 21:10:29 r, 06.57m,0000209751Hz,0000000000c,0000000.000s, 039.6C,00002195
2016-07-11 21:20:29 r, 06.89m,0000156415Hz,0000000000c,0000000.000s, 039.3C,00002195
2016-07-11 21:30:29 r, 07.64m,0000077903Hz,0000000000c,0000000.000s, 039.0C,00002195
2016-07-11 21:40:29 r, 08.36m,0000040195Hz,0000000000c,0000000.000s, 038.6C,00002195
2016-07-11 21:50:29 r, 09.57m,0000013259Hz,0000000000c,0000000.000s, 038.3C,00002195
2016-07-11 22:00:29 r, 10.85m,0000004093Hz,0000000000c,0000000.000s, 038.0C,00002195
2016-07-11 22:10:29 r, 12.99m,0000000570Hz,0000000000c,0000000.000s, 037.7C,00002195
2016-07-11 22:20:29 r, 14.65m,0000000124Hz,0000003745c,0000000.008s, 037.7C,00002195
2016-07-11 22:30:29 r, 15.27m,0000000069Hz,0000006671c,0000000.014s, 037.7C,00002195
2016-07-11 22:40:30 r, 15.41m,0000000061Hz,0000007573c,0000000.016s, 037.3C,00002195
2016-07-11 22:50:29 r, 15.50m,0000000056Hz,0000008224c,0000000.018s, 037.0C,00002195
2016-07-11 23:00:30 r, 15.20m,0000000075Hz,0000006247c,0000000.014s, 036.7C,00002195
2016-07-11 23:10:29 r, 15.49m,0000000057Hz,0000008157c,0000000.018s, 036.0C,00002195
2016-07-11 23:20:29 r, 15.10m,0000000080Hz,0000005714c,0000000.012s, 035.4C,00002195
2016-07-11 23:30:29 r, 15.61m,0000000049Hz,0000009207c,0000000.020s, 034.8C,00002195
2016-07-11 23:40:29 r, 15.70m,0000000046Hz,0000009924c,0000000.022s, 033.8C,00002195
2016-07-11 23:50:30 r, 15.86m,0000000040Hz,0000011462c,0000000.025s, 033.1C,00002195
